OKEAN-3

Last updated on Wed Jul 02 2025 00:02:14 GMT+0000 (Coordinated Universal Time)

1 21397U 91039A 25182.54885166 .00001396 00000+0 10187-3 0 9993 2 21397 82.5162 219.7629 0016455 104.8222 255.4828 15.02832447827292
UTC large
Height (km)
Speed (km/s)
/
Latitude / Longitude
Inclination (degrees)
Orbital Period (minutes)
Azimuth
Elevation
Range (km)
Doppler Factor

Next 0 passes for location: London (51.5072 / 0.1276)

Sorry there are no passes over London.